When you browse on this site, cookies collect data to enhance your experience and personalize the content and advertising you see.
Visit our Privacy Policy to learn more. By continuing to use the site, you agree to this use of cookies and data.
  • In Czech Republic
  • List of Countries
  • For 7 days
  • Water Temperature
  • Weather Map
  • Weather Widgets
  • user-avatar
    Login

    Hourly Weather Le Pontet

    Today, 4 June, Thursday

    Time Temperature Precipitation Wind Pressure Humidity
    00:00 +18°C° 0.7 mm 4 mps 743 mmHg 84%
    01:00 +18°C° 1.6 mm 3 mps 743 mmHg 86%
    02:00 +18°C° 1.6 mm 3 mps 742 mmHg 89%
    03:00 +17°C° 1.6 mm 2 mps 742 mmHg 92%
    04:00 +17°C° 3.2 mm 2 mps 741 mmHg 92%
    05:00 +17°C° 3.2 mm 2 mps 741 mmHg 92%
    06:00 +17°C° 3.2 mm 2 mps 741 mmHg 93%
    07:00 +18°C° 1.1 mm 2 mps 741 mmHg 89%
    08:00 +19°C° 1.1 mm 1 mps 741 mmHg 86%
    09:00 +20°C° 1.1 mm 1 mps 741 mmHg 82%
    10:00 +21°C° 0.5 mm 1 mps 741 mmHg 79%
    11:00 +20°C° 0.5 mm 2 mps 740 mmHg 76%
    12:00 +20°C° 0.5 mm 2 mps 740 mmHg 72%
    13:00 +20°C° 0.2 mm 3 mps 740 mmHg 69%
    14:00 +21°C° 0.2 mm 3 mps 740 mmHg 66%
    15:00 +21°C° 0.2 mm 4 mps 739 mmHg 63%
    16:00 +20°C° 0.5 mm 4 mps 739 mmHg 66%
    17:00 +20°C° 0.5 mm 3 mps 739 mmHg 69%
    18:00 +19°C° 0.5 mm 3 mps 739 mmHg 71%
    19:00 +18°C° 0.3 mm 3 mps 740 mmHg 74%
    20:00 +17°C° 0.3 mm 2 mps 740 mmHg 76%
    21:00 +16°C° 0.3 mm 2 mps 740 mmHg 79%
    22:00 +16°C° 0 mm 3 mps 741 mmHg 80%
    23:00 +14°C° 0 mm 4 mps 741 mmHg 81%

    Tomorrow, 5 June, Friday

    Time Temperature Precipitation Wind Pressure Humidity
    00:00 +14°C° 0 mm 5 mps 741 mmHg 82%
    01:00 +14°C° 0 mm 5 mps 741 mmHg 81%
    02:00 +13°C° 0 mm 5 mps 741 mmHg 81%
    03:00 +13°C° 0 mm 5 mps 742 mmHg 80%
    04:00 +13°C° 0 mm 5 mps 742 mmHg 77%
    05:00 +14°C° 0 mm 5 mps 743 mmHg 75%
    06:00 +14°C° 0 mm 5 mps 743 mmHg 73%
    07:00 +15°C° 0 mm 6 mps 743 mmHg 66%
    08:00 +17°C° 0 mm 7 mps 744 mmHg 59%
    09:00 +18°C° 0 mm 8 mps 744 mmHg 52%
    10:00 +20°C° 0 mm 8 mps 744 mmHg 49%
    11:00 +21°C° 0 mm 7 mps 744 mmHg 45%
    12:00 +22°C° 0 mm 7 mps 745 mmHg 41%
    13:00 +22°C° 0 mm 7 mps 745 mmHg 43%
    14:00 +22°C° 0 mm 7 mps 745 mmHg 44%
    15:00 +22°C° 0 mm 7 mps 745 mmHg 45%
    16:00 +22°C° 0 mm 6 mps 745 mmHg 50%
    17:00 +21°C° 0 mm 5 mps 745 mmHg 54%
    18:00 +20°C° 0 mm 4 mps 745 mmHg 59%
    19:00 +19°C° 0 mm 3 mps 746 mmHg 62%
    20:00 +17°C° 0 mm 3 mps 747 mmHg 65%
    21:00 +16°C° 0 mm 2 mps 747 mmHg 68%
    22:00 +16°C° 0 mm 2 mps 747 mmHg 70%
    23:00 +15°C° 0 mm 2 mps 747 mmHg 72%

    Day after tomorrow, 6 June, Saturday

    Time Temperature Precipitation Wind Pressure Humidity
    00:00 +15°C° 0 mm 2 mps 747 mmHg 74%
    01:00 +15°C° 0 mm 1 mps 747 mmHg 75%
    02:00 +14°C° 0 mm 1 mps 747 mmHg 77%
    03:00 +14°C° 0 mm 1 mps 747 mmHg 79%
    04:00 +15°C° 0 mm 1 mps 747 mmHg 76%
    05:00 +16°C° 0 mm 1 mps 748 mmHg 73%
    06:00 +18°C° 0 mm 1 mps 748 mmHg 71%
    07:00 +19°C° 0 mm 2 mps 748 mmHg 65%
    08:00 +21°C° 0 mm 2 mps 748 mmHg 59%
    09:00 +23°C° 0 mm 2 mps 748 mmHg 54%
    10:00 +24°C° 0 mm 2 mps 748 mmHg 51%
    11:00 +25°C° 0 mm 3 mps 747 mmHg 48%
    12:00 +26°C° 0 mm 3 mps 747 mmHg 46%
    13:00 +26°C° 0 mm 3 mps 747 mmHg 46%
    14:00 +26°C° 0 mm 4 mps 747 mmHg 47%
    15:00 +26°C° 0 mm 4 mps 747 mmHg 48%
    16:00 +25°C° 0 mm 4 mps 747 mmHg 55%
    17:00 +23°C° 0 mm 4 mps 747 mmHg 61%
    18:00 +22°C° 0 mm 5 mps 746 mmHg 68%
    19:00 +20°C° 0.5 mm 4 mps 747 mmHg 75%
    20:00 +19°C° 0.5 mm 3 mps 747 mmHg 82%
    21:00 +18°C° 0.5 mm 2 mps 748 mmHg 89%
    22:00 +18°C° 0.7 mm 2 mps 747 mmHg 89%
    23:00 +18°C° 0.7 mm 2 mps 747 mmHg 90%

    7 June, Sunday

    Time Temperature Precipitation Wind Pressure Humidity
    00:00 +19°C° 0.7 mm 1 mps 747 mmHg 90%
    01:00 +19°C° 1 mm 1 mps 747 mmHg 90%
    02:00 +19°C° 1 mm 1 mps 747 mmHg 90%
    03:00 +18°C° 1 mm 1 mps 747 mmHg 90%
    04:00 +19°C° 0.6 mm 1 mps 747 mmHg 89%
    05:00 +19°C° 0.6 mm 1 mps 747 mmHg 88%
    06:00 +19°C° 0.6 mm 1 mps 747 mmHg 87%
    07:00 +19°C° 0.4 mm 1 mps 747 mmHg 87%
    08:00 +18°C° 0.4 mm 2 mps 747 mmHg 86%
    09:00 +18°C° 0.4 mm 2 mps 748 mmHg 86%
    10:00 +18°C° 0.9 mm 2 mps 748 mmHg 86%
    11:00 +18°C° 0.9 mm 3 mps 748 mmHg 85%
    12:00 +18°C° 0.9 mm 3 mps 748 mmHg 85%
    13:00 +19°C° 0.4 mm 3 mps 748 mmHg 78%
    14:00 +20°C° 0.4 mm 2 mps 747 mmHg 72%
    15:00 +22°C° 0.4 mm 1 mps 747 mmHg 65%
    16:00 +21°C° 0.1 mm 2 mps 747 mmHg 68%
    17:00 +20°C° 0.1 mm 2 mps 747 mmHg 70%
    18:00 +20°C° 0.1 mm 2 mps 747 mmHg 72%
    19:00 +19°C° 0 mm 3 mps 748 mmHg 73%
    20:00 +18°C° 0 mm 3 mps 748 mmHg 73%
    21:00 +15°C° 0 mm 4 mps 749 mmHg 73%
    22:00 +15°C° 0 mm 4 mps 749 mmHg 72%
    23:00 +14°C° 0 mm 5 mps 749 mmHg 71%

    8 June, Monday

    Time Temperature Precipitation Wind Pressure Humidity
    00:00 +14°C° 0 mm 5 mps 749 mmHg 69%
    01:00 +13°C° 0 mm 5 mps 749 mmHg 68%
    02:00 +13°C° 0 mm 5 mps 749 mmHg 67%
    03:00 +12°C° 0 mm 5 mps 749 mmHg 66%
    04:00 +12°C° 0 mm 5 mps 749 mmHg 66%
    05:00 +13°C° 0 mm 6 mps 749 mmHg 65%
    06:00 +13°C° 0 mm 6 mps 749 mmHg 65%
    07:00 +15°C° 0 mm 7 mps 749 mmHg 60%
    08:00 +16°C° 0 mm 7 mps 749 mmHg 56%
    09:00 +18°C° 0 mm 8 mps 749 mmHg 51%
    10:00 +20°C° 0 mm 8 mps 749 mmHg 49%
    11:00 +21°C° 0 mm 8 mps 749 mmHg 47%
    12:00 +22°C° 0 mm 9 mps 749 mmHg 45%
    13:00 +22°C° 0 mm 8 mps 749 mmHg 44%
    14:00 +23°C° 0 mm 8 mps 748 mmHg 43%
    15:00 +23°C° 0 mm 8 mps 748 mmHg 43%
    16:00 +22°C° 0 mm 8 mps 748 mmHg 45%
    17:00 +21°C° 0 mm 7 mps 748 mmHg 48%
    18:00 +20°C° 0 mm 6 mps 749 mmHg 51%
    19:00 +19°C° 0 mm 6 mps 749 mmHg 52%
    20:00 +17°C° 0 mm 6 mps 750 mmHg 54%
    21:00 +16°C° 0 mm 5 mps 750 mmHg 55%
    22:00 +15°C° 0 mm 5 mps 751 mmHg 59%
    23:00 +15°C° 0 mm 5 mps 751 mmHg 62%

    9 June, Tuesday

    Time Temperature Precipitation Wind Pressure Humidity
    00:00 +14°C° 0 mm 5 mps 751 mmHg 65%
    01:00 +13°C° 0 mm 5 mps 751 mmHg 67%
    02:00 +13°C° 0 mm 5 mps 751 mmHg 69%
    03:00 +12°C° 0 mm 4 mps 751 mmHg 71%
    04:00 +13°C° 0 mm 5 mps 751 mmHg 71%
    05:00 +14°C° 0 mm 5 mps 751 mmHg 70%
    06:00 +14°C° 0 mm 5 mps 752 mmHg 69%
    07:00 +16°C° 0 mm 6 mps 751 mmHg 65%
    08:00 +18°C° 0 mm 7 mps 751 mmHg 60%
    09:00 +20°C° 0 mm 7 mps 751 mmHg 55%
    10:00 +21°C° 0 mm 8 mps 751 mmHg 52%
    11:00 +22°C° 0 mm 8 mps 751 mmHg 49%
    12:00 +23°C° 0 mm 8 mps 752 mmHg 46%
    13:00 +23°C° 0 mm 8 mps 751 mmHg 45%
    14:00 +24°C° 0 mm 7 mps 751 mmHg 44%
    15:00 +24°C° 0 mm 7 mps 751 mmHg 44%
    16:00 +23°C° 0 mm 7 mps 751 mmHg 47%
    17:00 +22°C° 0 mm 6 mps 751 mmHg 50%
    18:00 +21°C° 0 mm 6 mps 751 mmHg 53%
    19:00 +19°C° 0 mm 5 mps 752 mmHg 55%
    20:00 +17°C° 0 mm 5 mps 752 mmHg 57%
    21:00 +16°C° 0 mm 5 mps 753 mmHg 59%
    22:00 +15°C° 0 mm 5 mps 753 mmHg 61%
    23:00 +15°C° 0 mm 5 mps 753 mmHg 63%
    Show more